Istanbul, Turkey

10:48 AM +03 on June 23, 2017 (GMT +0300)
Ataturk

Weather History for LTBA - January, 2012

Change the Weather History Date:

Wednesday, January 4, 2012

  Actual Average Record
Temperature  
Mean Temperature 42 °F -  
Max Temperature 49 °F 46 °F 57 °F (1997)
Min Temperature 36 °F 37 °F 26 °F (2008)
Degree Days  
Heating Degree Days 22    
Moisture  
Dew Point 40 °F    
Average Humidity 87    
Maximum Humidity 100    
Minimum Humidity 62    
Precipitation  
Precipitation 0.00 in - - ()
Sea Level Pressure  
Sea Level Pressure 30.18 in    
Wind  
Wind Speed 5 mph ()    
Max Wind Speed 10 mph    
Max Gust Speed -    
Visibility 3.5 miles    
Events Fog    
Averages and records for this station are not official NWS values.
T = Trace of Precipitation, MM = Missing Value Source: Averaged Metar Reports

Daily Weather History Graph

Daily Weather History Graph

Search for Another Location

Airport or City:

Trip Planner

Search our weather history database for the weather conditions in past years. The results will help you decide how hot, cold, wet, or windy it might be!

Date:

Astronomy

Jan. 04, 2012 Rise Set
Actual Time 7:29 AM EET 4:49 PM EET
Civil Twilight 6:58 AM EET 5:20 PM EET
Nautical Twilight 6:24 AM EET 5:54 PM EET
Astronomical Twilight 5:51 AM EET 6:27 PM EET
Moon 1:00 PM EET (1/4) 2:58 AM EET (1/4)
Length of Visible Light 10h 21m
Length of Day
9h 19m
Waxing Gibbous, 78% of the Moon is Illuminated
Jan 4
Waxing Gibbous
Jan 9
Full
Jan 16
Last Quarter
Jan 23
New
Jan 31
First Quarter

Hourly Weather History & Observations

Time (EET) Temp. Windchill Dew Point Humidity Pressure Visibility Wind Dir Wind Speed Gust Speed Precip Events Conditions
12:20 AM 44.6 °F 43.1 °F 42.8 °F 93% 30.30 in - West 3.5 mph - N/A   Clear
12:50 AM 44.6 °F 43.1 °F 41.0 °F 87% 30.30 in - WNW 3.5 mph - N/A   Clear
1:20 AM 37.4 °F - 35.6 °F 93% 30.30 in 4.3 mi West 2.3 mph - N/A   Unknown
1:50 AM 39.2 °F - 37.4 °F 93% 30.30 in 4.3 mi WSW 2.3 mph - N/A   Unknown
2:00 AM 39 °F - 38 °F 96% 30.32 in 4 mi WSW 2.3 mph - -   Mist
2:20 AM 41.0 °F 38.0 °F 41.0 °F 100% 30.27 in 3.7 mi SW 4.6 mph - N/A   Unknown
2:50 AM 39.2 °F - 39.2 °F 100% 30.27 in 2.5 mi Variable 1.2 mph - N/A   Mist
3:20 AM 39.2 °F - 39.2 °F 100% 30.27 in 2.5 mi Variable 2.3 mph - N/A   Mist
3:50 AM 42.8 °F 39.3 °F 42.8 °F 100% 30.27 in 3.7 mi SW 5.8 mph - N/A   Unknown
4:20 AM 42.8 °F 39.3 °F 42.8 °F 100% 30.27 in 4.3 mi SW 5.8 mph - N/A   Unknown
4:50 AM 44.6 °F 40.7 °F 42.8 °F 93% 30.24 in 3.7 mi SSW 6.9 mph - N/A   Unknown
5:20 AM 42.8 °F 38.6 °F 42.8 °F 100% 30.24 in 1.9 mi SW 6.9 mph - N/A   Mist
5:50 AM 42.8 °F 38.0 °F 41.0 °F 93% 30.24 in - SW 8.1 mph - N/A   Clear
6:20 AM 44.6 °F 40.2 °F 41.0 °F 87% 30.24 in 3.7 mi SW 8.1 mph - N/A   Unknown
6:50 AM 44.6 °F 40.7 °F 39.2 °F 81% 30.24 in 3.7 mi WSW 6.9 mph - N/A   Unknown
7:20 AM 42.8 °F 40.1 °F 39.2 °F 87% 30.24 in 2.5 mi WSW 4.6 mph - N/A   Mist
7:50 AM 42.8 °F 38.6 °F 41.0 °F 93% 30.24 in 2.5 mi WSW 6.9 mph - N/A   Mist
8:00 AM 44 °F - 40 °F 81% 30.27 in 2 mi WSW 6.9 mph - -   Mist
8:20 AM 44.6 °F 40.2 °F 39.2 °F 81% 30.24 in 3.7 mi SSW 8.1 mph - N/A   Unknown
8:50 AM 46.4 °F 42.9 °F 39.2 °F 76% 30.24 in 4.3 mi SW 6.9 mph - N/A   Unknown
9:20 AM 46.4 °F 42.9 °F 39.2 °F 76% 30.24 in - SW 6.9 mph - N/A   Clear
9:50 AM 46.4 °F 42.4 °F 37.4 °F 71% 30.24 in - SW 8.1 mph - N/A   Clear
10:20 AM 48.2 °F - 37.4 °F 66% 30.24 in - SSW 9.2 mph - N/A   Clear
10:50 AM 48.2 °F - 39.2 °F 71% 30.21 in - SSW 8.1 mph - N/A   Clear
11:20 AM 48.2 °F - 35.6 °F 62% 30.21 in - SSW 9.2 mph - N/A   Clear
11:50 AM 48.2 °F - 37.4 °F 66% 30.18 in - SW 9.2 mph - N/A   Clear
12:20 PM 48.2 °F - 37.4 °F 66% 30.18 in - SW 10.4 mph - N/A   Clear
12:50 PM 48.2 °F - 35.6 °F 62% 30.15 in - SW 10.4 mph - N/A   Clear
1:20 PM 48.2 °F - 41.0 °F 76% 30.15 in - SW 8.1 mph - N/A   Clear
1:50 PM 48.2 °F - 41.0 °F 76% 30.15 in - SW 8.1 mph - N/A   Clear
2:00 PM 47 °F - 41 °F 73% 30.16 in 12 mi SW 8.1 mph - -  
2:20 PM 46.4 °F 42.9 °F 42.8 °F 87% 30.12 in - SW 6.9 mph - N/A   Clear
2:50 PM 46.4 °F 42.9 °F 42.8 °F 87% 30.12 in - SW 6.9 mph - N/A   Clear
3:20 PM 46.4 °F 43.5 °F 42.8 °F 87% 30.12 in - SW 5.8 mph - N/A   Clear
3:50 PM 46.4 °F 43.5 °F 42.8 °F 87% 30.12 in - WSW 5.8 mph - N/A   Clear
4:20 PM 44.6 °F 40.7 °F 42.8 °F 93% 30.12 in - WSW 6.9 mph - N/A   Clear
4:50 PM 42.8 °F 38.6 °F 42.8 °F 100% 30.12 in - WSW 6.9 mph - N/A   Clear
5:20 PM 42.8 °F 38.6 °F 42.8 °F 100% 30.09 in - WSW 6.9 mph - N/A   Clear
5:50 PM 44.6 °F 40.7 °F 41.0 °F 87% 30.09 in - WSW 6.9 mph - N/A   Clear
6:20 PM 44.6 °F 40.7 °F 39.2 °F 81% 30.09 in - WSW 6.9 mph - N/A   Clear
6:50 PM 44.6 °F 41.4 °F 39.2 °F 81% 30.12 in - West 5.8 mph - N/A   Clear
7:20 PM 42.8 °F 39.3 °F 39.2 °F 87% 30.12 in - West 5.8 mph - N/A   Clear
7:50 PM 44.6 °F 40.7 °F 42.8 °F 93% 30.09 in - WSW 6.9 mph - N/A   Clear
8:00 PM 44 °F - 41 °F 84% 30.13 in 6 mi WSW 6.9 mph - -  
8:20 PM 44.6 °F 40.7 °F 39.2 °F 81% 30.09 in - WSW 6.9 mph - N/A   Clear
8:50 PM 44.6 °F 40.2 °F 41.0 °F 87% 30.09 in - WSW 8.1 mph - N/A   Clear
9:20 PM 42.8 °F 39.3 °F 42.8 °F 100% 30.09 in - WSW 5.8 mph - N/A   Clear
9:50 PM 42.8 °F 40.1 °F 42.8 °F 100% 30.09 in 3.7 mi WSW 4.6 mph - N/A   Unknown
10:20 PM 42.8 °F 40.1 °F 42.8 °F 100% 30.09 in - WSW 4.6 mph - N/A   Mist
10:50 PM 41.0 °F 39.0 °F 41.0 °F 100% 30.09 in 0.2 mi SW 3.5 mph - N/A Fog Fog
11:20 PM 41.0 °F - 41.0 °F 100% 30.09 in 0.2 mi Variable 2.3 mph - N/A Fog Fog
11:50 PM 41.0 °F - 41.0 °F 100% 30.09 in 0.1 mi Variable 2.3 mph - N/A Fog Fog